Location: Hamayl? Da??
(36.7028°N, 30.1716°E)
Time: 07:06:42
(UTC+00:00)

CENTAUR R/B - Pass Details

Date: 04 August 2024
Orbit: 663 x 1521 km, 63.4° (Epoch: 10 September)

Event Time Altitude Azimuth Distance (km) Brightness Sun altitude
Rises 17:49:48 0° 333° (NNW) 4,200 6.9 -9.4°
Reaches altitude 10° 17:52:49 10° 342° (NNW) 3,345 6.0 -9.9°
Maximum altitude 18:00:22 35° 46° (NE) 2,163 4.2 -11.2°
Enters shadow 18:07:36 14° 106° (ESE) 3,395 4.7 -12.4°
